Time,TemperatureF,DewpointF,PressureIn,WindDirection,WindDirectionDegrees,WindSpeedMPH,WindSpeedGustMPH,Humidity,HourlyPrecipIn,Conditions,Clouds,dailyrainin,SoftwareType,DateUTC
2013-05-02 00:00:00,57.5,50.0,30.21,East,84,6.0,6.0,76,0.00,,,0.00,Wunderground v.1.15,2013-05-02 04:00:00,
2013-05-02 00:09:00,57.7,50.2,30.20,ENE,67,6.0,6.0,76,0.00,,,0.00,Wunderground v.1.15,2013-05-02 04:09:00,
2013-05-02 00:19:00,57.3,49.8,30.21,ENE,67,5.0,5.0,76,0.00,,,0.00,Wunderground v.1.15,2013-05-02 04:19:00,
2013-05-02 00:29:00,57.3,49.8,30.20,East,97,5.0,6.0,76,0.00,,,0.00,Wunderground v.1.15,2013-05-02 04:29:00,
2013-05-02 00:39:00,56.9,49.4,30.21,ENE,63,5.0,5.0,76,0.00,,,0.00,Wunderground v.1.15,2013-05-02 04:39:00,
2013-05-02 00:49:00,56.6,49.5,30.21,ENE,63,5.0,5.0,77,0.00,,,0.00,Wunderground v.1.15,2013-05-02 04:49:00,
2013-05-02 00:59:00,56.4,49.6,30.21,East,88,5.0,5.0,78,0.00,,,0.00,Wunderground v.1.15,2013-05-02 04:59:00,
2013-05-02 01:09:00,56.0,49.6,30.21,East,94,5.0,5.0,79,0.00,,,0.00,Wunderground v.1.15,2013-05-02 05:09:00,
2013-05-02 01:19:00,55.7,49.6,30.21,East,86,4.0,4.0,80,0.00,,,0.00,Wunderground v.1.15,2013-05-02 05:19:00,
2013-05-02 01:29:00,55.5,49.4,30.21,East,91,4.0,7.0,80,0.00,,,0.00,Wunderground v.1.15,2013-05-02 05:29:00,
2013-05-02 01:39:00,55.6,49.5,30.21,East,85,5.0,5.0,80,0.00,,,0.00,Wunderground v.1.15,2013-05-02 05:39:00,
2013-05-02 01:49:00,56.0,49.6,30.21,East,90,2.0,2.0,79,0.00,,,0.00,Wunderground v.1.15,2013-05-02 05:49:00,
2013-05-02 01:59:00,55.9,49.5,30.20,East,89,2.0,3.0,79,0.00,,,0.00,Wunderground v.1.15,2013-05-02 05:59:00,
2013-05-02 02:09:00,56.0,49.6,30.20,East,92,3.0,3.0,79,0.00,,,0.00,Wunderground v.1.15,2013-05-02 06:09:00,
2013-05-02 02:19:00,56.1,49.7,30.20,East,81,3.0,3.0,79,0.00,,,0.00,Wunderground v.1.15,2013-05-02 06:19:00,
2013-05-02 02:29:00,56.2,49.8,30.20,East,86,3.0,5.0,79,0.00,,,0.00,Wunderground v.1.15,2013-05-02 06:29:00,
2013-05-02 02:39:00,56.6,49.8,30.20,East,86,4.0,4.0,78,0.00,,,0.00,Wunderground v.1.15,2013-05-02 06:39:00,
2013-05-02 02:49:00,56.4,49.6,30.20,East,91,4.0,4.0,78,0.00,,,0.00,Wunderground v.1.15,2013-05-02 06:49:00,
2013-05-02 02:59:00,56.0,49.6,30.20,East,94,4.0,4.0,79,0.00,,,0.00,Wunderground v.1.15,2013-05-02 06:59:00,
2013-05-02 03:09:00,55.4,49.3,30.20,East,94,2.0,2.0,80,0.00,,,0.00,Wunderground v.1.15,2013-05-02 07:09:00,
2013-05-02 03:19:00,55.0,49.3,30.20,ESE,106,2.0,3.0,81,0.00,,,0.00,Wunderground v.1.15,2013-05-02 07:19:00,
2013-05-02 03:29:00,55.0,48.9,30.20,ESE,105,2.0,2.0,80,0.00,,,0.00,Wunderground v.1.15,2013-05-02 07:29:00,
2013-05-02 03:39:00,55.2,48.8,30.20,East,99,3.0,3.0,79,0.00,,,0.00,Wunderground v.1.15,2013-05-02 07:39:00,
2013-05-02 03:49:00,55.1,48.7,30.20,East,101,3.0,3.0,79,0.00,,,0.00,Wunderground v.1.15,2013-05-02 07:49:00,
2013-05-02 03:59:00,55.1,48.7,30.20,East,101,3.0,3.0,79,0.00,,,0.00,Wunderground v.1.15,2013-05-02 07:59:00,
2013-05-02 04:09:00,55.1,48.7,30.20,ESE,105,3.0,3.0,79,0.00,,,0.00,Wunderground v.1.15,2013-05-02 08:09:00,
2013-05-02 04:19:00,55.3,48.9,30.20,East,101,3.0,3.0,79,0.00,,,0.00,Wunderground v.1.15,2013-05-02 08:19:00,
2013-05-02 04:29:00,54.9,48.5,30.20,ESE,113,3.0,5.0,79,0.00,,,0.00,Wunderground v.1.15,2013-05-02 08:29:00,
2013-05-02 04:39:00,54.9,48.5,30.20,ESE,113,3.0,3.0,79,0.00,,,0.00,Wunderground v.1.15,2013-05-02 08:39:00,
2013-05-02 04:49:00,55.0,48.3,30.20,ESE,112,3.0,4.0,78,0.00,,,0.00,Wunderground v.1.15,2013-05-02 08:49:00,
2013-05-02 04:59:00,55.1,47.7,30.20,ESE,117,3.0,3.0,76,0.00,,,0.00,Wunderground v.1.15,2013-05-02 08:59:00,
2013-05-02 05:09:00,55.1,47.7,30.20,ESE,103,3.0,3.0,76,0.00,,,0.00,Wunderground v.1.15,2013-05-02 09:09:00,
2013-05-02 05:19:00,54.8,47.7,30.20,ESE,105,3.0,3.0,77,0.00,,,0.00,Wunderground v.1.15,2013-05-02 09:19:00,
2013-05-02 05:29:00,54.6,47.5,30.20,ESE,102,3.0,3.0,77,0.00,,,0.00,Wunderground v.1.15,2013-05-02 09:29:00,
2013-05-02 05:39:00,53.8,47.1,30.20,East,101,3.0,3.0,78,0.00,,,0.00,Wunderground v.1.15,2013-05-02 09:39:00,
2013-05-02 05:49:00,53.5,47.1,30.20,ESE,115,4.0,4.0,79,0.00,,,0.00,Wunderground v.1.15,2013-05-02 09:49:00,
2013-05-02 06:00:00,53.5,47.1,30.20,East,101,3.0,3.0,79,0.00,,,0.00,Wunderground v.1.15,2013-05-02 10:00:00,
2013-05-02 06:09:00,53.1,46.8,30.21,East,92,2.0,5.0,79,0.00,,,0.00,Wunderground v.1.15,2013-05-02 10:09:00,
2013-05-02 06:19:00,53.2,47.2,30.21,ESE,109,4.0,4.0,80,0.00,,,0.00,Wunderground v.1.15,2013-05-02 10:19:00,
2013-05-02 06:29:00,53.0,47.0,30.21,ESE,105,4.0,4.0,80,0.00,,,0.00,Wunderground v.1.15,2013-05-02 10:29:00,
2013-05-02 06:39:00,52.9,46.6,30.21,ESE,116,3.0,3.0,79,0.00,,,0.00,Wunderground v.1.15,2013-05-02 10:39:00,
2013-05-02 06:49:00,53.0,46.7,30.22,East,95,3.0,3.0,79,0.00,,,0.00,Wunderground v.1.15,2013-05-02 10:49:00,
2013-05-02 06:59:00,53.5,46.8,30.22,ESE,113,3.0,4.0,78,0.00,,,0.00,Wunderground v.1.15,2013-05-02 10:59:00,
2013-05-02 07:09:00,54.4,46.6,30.22,ESE,115,5.0,5.0,75,0.00,,,0.00,Wunderground v.1.15,2013-05-02 11:09:00,
2013-05-02 07:19:00,55.6,46.7,30.22,ESE,123,5.0,5.0,72,0.00,,,0.00,Wunderground v.1.15,2013-05-02 11:19:00,
2013-05-02 07:29:00,56.7,47.0,30.22,ESE,105,6.0,8.0,70,0.00,,,0.00,Wunderground v.1.15,2013-05-02 11:29:00,
2013-05-02 07:39:00,57.1,47.0,30.23,ESE,119,6.0,7.0,69,0.00,,,0.00,Wunderground v.1.15,2013-05-02 11:39:00,
2013-05-02 07:49:00,57.8,46.9,30.23,SE,142,7.0,7.0,67,0.00,,,0.00,Wunderground v.1.15,2013-05-02 11:49:00,
2013-05-02 07:59:00,58.4,47.1,30.23,SE,144,6.0,7.0,66,0.00,,,0.00,Wunderground v.1.15,2013-05-02 11:59:00,
2013-05-02 08:09:00,59.0,48.1,30.23,East,96,6.0,7.0,67,0.00,,,0.00,Wunderground v.1.15,2013-05-02 12:09:00,
2013-05-02 08:19:00,60.2,48.0,30.23,SE,139,7.0,9.0,64,0.00,,,0.00,Wunderground v.1.15,2013-05-02 12:19:00,
2013-05-02 08:29:00,60.6,48.4,30.24,SE,140,7.0,7.0,64,0.00,,,0.00,Wunderground v.1.15,2013-05-02 12:29:00,
2013-05-02 08:39:00,61.0,48.3,30.24,SSE,150,7.0,7.0,63,0.00,,,0.00,Wunderground v.1.15,2013-05-02 12:39:00,
2013-05-02 08:49:00,61.6,48.4,30.24,SSE,158,8.0,8.0,62,0.00,,,0.00,Wunderground v.1.15,2013-05-02 12:49:00,
2013-05-02 08:59:00,62.3,48.7,30.24,SSE,161,7.0,7.0,61,0.00,,,0.00,Wunderground v.1.15,2013-05-02 12:59:00,
2013-05-02 09:09:00,62.3,48.7,30.24,SE,144,7.0,8.0,61,0.00,,,0.00,Wunderground v.1.15,2013-05-02 13:09:00,
2013-05-02 09:19:00,62.8,49.1,30.24,SE,141,7.0,7.0,61,0.00,,,0.00,Wunderground v.1.15,2013-05-02 13:19:00,
2013-05-02 09:29:00,63.4,49.3,30.24,SSE,147,7.0,8.0,60,0.00,,,0.00,Wunderground v.1.15,2013-05-02 13:29:00,
2013-05-02 09:39:00,63.4,49.7,30.24,SE,143,8.0,8.0,61,0.00,,,0.00,Wunderground v.1.15,2013-05-02 13:39:00,
2013-05-02 09:49:00,64.1,49.9,30.24,SE,146,7.0,7.0,60,0.00,,,0.00,Wunderground v.1.15,2013-05-02 13:49:00,
2013-05-02 09:59:00,64.3,50.6,30.24,SE,142,8.0,11.0,61,0.00,,,0.00,Wunderground v.1.15,2013-05-02 13:59:00,
2013-05-02 10:09:00,65.3,50.6,30.24,SE,136,8.0,10.0,59,0.00,,,0.00,Wunderground v.1.15,2013-05-02 14:09:00,
2013-05-02 10:19:00,65.7,51.9,30.24,SE,141,8.0,8.0,61,0.00,,,0.00,Wunderground v.1.15,2013-05-02 14:19:00,
2013-05-02 10:29:00,66.2,51.4,30.25,SSE,162,7.0,10.0,59,0.00,,,0.00,Wunderground v.1.15,2013-05-02 14:29:00,
2013-05-02 10:39:00,66.5,51.7,30.25,SSE,159,7.0,11.0,59,0.00,,,0.00,Wunderground v.1.15,2013-05-02 14:39:00,
2013-05-02 10:49:00,66.8,51.5,30.25,SSE,147,7.0,7.0,58,0.00,,,0.00,Wunderground v.1.15,2013-05-02 14:49:00,
2013-05-02 11:00:00,67.0,52.2,30.25,SSE,155,7.0,10.0,59,0.00,,,0.00,Wunderground v.1.15,2013-05-02 15:00:00,
2013-05-02 11:09:00,67.3,52.5,30.25,SE,145,7.0,7.0,59,0.00,,,0.00,Wunderground v.1.15,2013-05-02 15:09:00,
2013-05-02 11:19:00,68.4,53.0,30.24,SE,142,7.0,9.0,58,0.00,,,0.00,Wunderground v.1.15,2013-05-02 15:19:00,
2013-05-02 11:29:00,68.5,53.1,30.24,SE,140,8.0,11.0,58,0.00,,,0.00,Wunderground v.1.15,2013-05-02 15:29:00,
2013-05-02 11:39:00,69.2,53.8,30.24,SSE,161,8.0,8.0,58,0.00,,,0.00,Wunderground v.1.15,2013-05-02 15:39:00,
2013-05-02 11:49:00,70.1,54.2,30.24,SE,133,7.0,8.0,57,0.00,,,0.00,Wunderground v.1.15,2013-05-02 15:49:00,
2013-05-02 11:59:00,70.4,53.5,30.24,SSE,153,8.0,10.0,55,0.00,,,0.00,Wunderground v.1.15,2013-05-02 15:59:00,
2013-05-02 12:09:00,71.0,54.5,30.24,SSE,153,7.0,9.0,56,0.00,,,0.00,Wunderground v.1.15,2013-05-02 16:09:00,
2013-05-02 12:19:00,71.0,55.0,30.24,South,170,7.0,7.0,57,0.00,,,0.00,Wunderground v.1.15,2013-05-02 16:19:00,
2013-05-02 12:29:00,71.0,54.0,30.23,SSE,148,8.0,9.0,55,0.00,,,0.00,Wunderground v.1.15,2013-05-02 16:29:00,
2013-05-02 12:39:00,71.3,53.3,30.23,SE,135,8.0,8.0,53,0.00,,,0.00,Wunderground v.1.15,2013-05-02 16:39:00,
2013-05-02 12:49:00,72.4,55.3,30.23,SE,133,8.0,9.0,55,0.00,,,0.00,Wunderground v.1.15,2013-05-02 16:49:00,
2013-05-02 13:00:00,71.8,54.3,30.22,SSE,147,8.0,12.0,54,0.00,,,0.00,Wunderground v.1.15,2013-05-02 17:00:00,
2013-05-02 13:09:00,72.0,54.4,30.22,SSE,152,7.0,7.0,54,0.00,,,0.00,Wunderground v.1.15,2013-05-02 17:09:00,
2013-05-02 13:19:00,72.6,54.5,30.22,SSE,155,6.0,6.0,53,0.00,,,0.00,Wunderground v.1.15,2013-05-02 17:19:00,
2013-05-02 13:29:00,72.7,54.1,30.22,SE,124,6.0,7.0,52,0.00,,,0.00,Wunderground v.1.15,2013-05-02 17:29:00,
2013-05-02 13:39:00,72.9,53.7,30.21,SE,142,6.0,7.0,51,0.00,,,0.00,Wunderground v.1.15,2013-05-02 17:39:00,
2013-05-02 13:49:00,73.1,54.4,30.21,SE,140,7.0,7.0,52,0.00,,,0.00,Wunderground v.1.15,2013-05-02 17:49:00,
2013-05-02 13:59:00,73.9,55.2,30.21,ESE,120,6.0,8.0,52,0.00,,,0.00,Wunderground v.1.15,2013-05-02 17:59:00,
2013-05-02 14:19:00,74.5,53.5,30.20,SSE,151,5.0,6.0,48,0.00,,,0.00,Wunderground v.1.15,2013-05-02 18:19:00,
2013-05-02 14:29:00,74.5,54.1,30.20,ESE,118,5.0,5.0,49,0.00,,,0.00,Wunderground v.1.15,2013-05-02 18:29:00,
2013-05-02 14:39:00,75.2,55.3,30.20,East,93,5.0,10.0,50,0.00,,,0.00,Wunderground v.1.15,2013-05-02 18:39:00,
2013-05-02 14:49:00,73.9,54.1,30.20,ESE,119,6.0,6.0,50,0.00,,,0.00,Wunderground v.1.15,2013-05-02 18:49:00,
2013-05-02 14:59:00,73.8,52.9,30.20,SE,140,5.0,5.0,48,0.00,,,0.00,Wunderground v.1.15,2013-05-02 18:59:00,
2013-05-02 15:09:00,73.4,52.5,30.20,SE,135,6.0,6.0,48,0.00,,,0.00,Wunderground v.1.15,2013-05-02 19:09:00,
2013-05-02 15:19:00,74.0,53.1,30.20,ESE,113,7.0,7.0,48,0.00,,,0.00,Wunderground v.1.15,2013-05-02 19:19:00,
2013-05-02 15:29:00,74.9,53.3,30.19,SE,132,7.0,8.0,47,0.00,,,0.00,Wunderground v.1.15,2013-05-02 19:29:00,
2013-05-02 15:39:00,75.1,53.5,30.19,East,92,7.0,8.0,47,0.00,,,0.00,Wunderground v.1.15,2013-05-02 19:39:00,
2013-05-02 15:49:00,75.0,54.0,30.18,East,96,8.0,9.0,48,0.00,,,0.00,Wunderground v.1.15,2013-05-02 19:49:00,
2013-05-02 15:59:00,75.1,54.6,30.18,SE,132,8.0,8.0,49,0.00,,,0.00,Wunderground v.1.15,2013-05-02 19:59:00,
2013-05-02 16:09:00,74.8,54.4,30.17,ESE,109,8.0,8.0,49,0.00,,,0.00,Wunderground v.1.15,2013-05-02 20:09:00,
2013-05-02 16:19:00,74.5,53.5,30.17,SE,134,8.0,8.0,48,0.00,,,0.00,Wunderground v.1.15,2013-05-02 20:19:00,
2013-05-02 16:29:00,74.7,52.5,30.17,East,85,9.0,10.0,46,0.00,,,0.00,Wunderground v.1.15,2013-05-02 20:29:00,
2013-05-02 16:39:00,73.9,51.8,30.17,East,89,9.0,9.0,46,0.00,,,0.00,Wunderground v.1.15,2013-05-02 20:39:00,
2013-05-02 16:49:00,73.8,52.9,30.17,ESE,115,9.0,10.0,48,0.00,,,0.00,Wunderground v.1.15,2013-05-02 20:49:00,
2013-05-02 17:00:00,73.4,52.5,30.17,ESE,122,9.0,9.0,48,0.00,,,0.00,Wunderground v.1.15,2013-05-02 21:00:00,
2013-05-02 17:09:00,73.3,52.4,30.16,ESE,113,8.0,8.0,48,0.00,,,0.00,Wunderground v.1.15,2013-05-02 21:09:00,
2013-05-02 17:19:00,73.2,51.8,30.16,East,82,9.0,11.0,47,0.00,,,0.00,Wunderground v.1.15,2013-05-02 21:19:00,
2013-05-02 17:29:00,72.7,51.9,30.16,ESE,115,9.0,9.0,48,0.00,,,0.00,Wunderground v.1.15,2013-05-02 21:29:00,
2013-05-02 17:39:00,72.4,51.6,30.16,East,101,8.0,11.0,48,0.00,,,0.00,Wunderground v.1.15,2013-05-02 21:39:00,
2013-05-02 17:49:00,71.2,51.1,30.15,ESE,104,9.0,9.0,49,0.00,,,0.00,Wunderground v.1.15,2013-05-02 21:49:00,
2013-05-02 17:59:00,71.1,52.6,30.15,East,85,10.0,10.0,52,0.00,,,0.00,Wunderground v.1.15,2013-05-02 21:59:00,
2013-05-02 18:09:00,71.3,51.7,30.15,East,83,10.0,13.0,50,0.00,,,0.00,Wunderground v.1.15,2013-05-02 22:09:00,
2013-05-02 18:19:00,71.2,52.7,30.14,East,93,10.0,10.0,52,0.00,,,0.00,Wunderground v.1.15,2013-05-02 22:19:00,
2013-05-02 18:29:00,70.1,50.6,30.14,ENE,59,8.0,9.0,50,0.00,,,0.00,Wunderground v.1.15,2013-05-02 22:29:00,
2013-05-02 18:39:00,68.7,49.8,30.14,East,81,7.0,7.0,51,0.00,,,0.00,Wunderground v.1.15,2013-05-02 22:39:00,
2013-05-02 18:49:00,68.1,48.8,30.14,ENE,74,8.0,8.0,50,0.00,,,0.00,Wunderground v.1.15,2013-05-02 22:49:00,
2013-05-02 19:00:00,67.6,48.8,30.14,East,86,9.0,9.0,51,0.00,,,0.00,Wunderground v.1.15,2013-05-02 23:00:00,
2013-05-02 19:09:00,67.0,48.8,30.14,East,96,7.0,8.0,52,0.00,,,0.00,Wunderground v.1.15,2013-05-02 23:09:00,
2013-05-02 19:19:00,66.7,48.5,30.14,East,92,10.0,10.0,52,0.00,,,0.00,Wunderground v.1.15,2013-05-02 23:19:00,
2013-05-02 19:29:00,66.2,49.1,30.14,East,81,7.0,8.0,54,0.00,,,0.00,Wunderground v.1.15,2013-05-02 23:29:00,
2013-05-02 19:39:00,65.8,48.2,30.14,ENE,78,7.0,7.0,53,0.00,,,0.00,Wunderground v.1.15,2013-05-02 23:39:00,
2013-05-02 19:49:00,65.3,47.2,30.14,East,89,11.0,11.0,52,0.00,,,0.00,Wunderground v.1.15,2013-05-02 23:49:00,
2013-05-02 19:59:00,64.6,47.1,30.13,ENE,65,10.0,10.0,53,0.00,,,0.00,Wunderground v.1.15,2013-05-02 23:59:00,
2013-05-02 20:09:00,63.9,46.9,30.13,ENE,71,8.0,8.0,54,0.00,,,0.00,Wunderground v.1.15,2013-05-03 00:09:00,
2013-05-02 20:19:00,63.1,46.7,30.13,East,88,6.0,6.0,55,0.00,,,0.00,Wunderground v.1.15,2013-05-03 00:19:00,
2013-05-02 20:29:00,62.5,47.1,30.13,ENE,74,5.0,5.0,57,0.00,,,0.00,Wunderground v.1.15,2013-05-03 00:29:00,
2013-05-02 20:39:00,61.8,47.8,30.13,East,93,4.0,6.0,60,0.00,,,0.00,Wunderground v.1.15,2013-05-03 00:39:00,
2013-05-02 20:49:00,60.2,47.6,30.13,East,85,5.0,5.0,63,0.00,,,0.00,Wunderground v.1.15,2013-05-03 00:49:00,
2013-05-02 20:59:00,59.9,47.7,30.13,East,83,6.0,6.0,64,0.00,,,0.00,Wunderground v.1.15,2013-05-03 00:59:00,
2013-05-02 21:09:00,59.5,47.3,30.13,East,86,5.0,5.0,64,0.00,,,0.00,Wunderground v.1.15,2013-05-03 01:09:00,
2013-05-02 21:19:00,59.6,47.0,30.13,ENE,74,6.0,8.0,63,0.00,,,0.00,Wunderground v.1.15,2013-05-03 01:19:00,
2013-05-02 21:29:00,59.7,46.7,30.13,East,98,7.0,8.0,62,0.00,,,0.00,Wunderground v.1.15,2013-05-03 01:29:00,
2013-05-02 21:39:00,60.0,44.7,30.13,East,84,8.0,8.0,57,0.00,,,0.00,Wunderground v.1.15,2013-05-03 01:39:00,
2013-05-02 21:49:00,60.2,43.5,30.14,East,84,10.0,10.0,54,0.00,,,0.00,Wunderground v.1.15,2013-05-03 01:49:00,
2013-05-02 22:00:00,59.9,42.2,30.13,ENE,72,9.0,9.0,52,0.00,,,0.00,Wunderground v.1.15,2013-05-03 02:00:00,
2013-05-02 22:09:00,59.8,40.6,30.13,East,89,9.0,11.0,49,0.00,,,0.00,Wunderground v.1.15,2013-05-03 02:09:00,
2013-05-02 22:19:00,59.7,40.0,30.13,East,86,9.0,9.0,48,0.00,,,0.00,Wunderground v.1.15,2013-05-03 02:19:00,
2013-05-02 22:29:00,59.5,40.3,30.13,East,82,8.0,8.0,49,0.00,,,0.00,Wunderground v.1.15,2013-05-03 02:29:00,
2013-05-02 22:39:00,58.7,41.1,30.13,East,93,8.0,8.0,52,0.00,,,0.00,Wunderground v.1.15,2013-05-03 02:39:00,
2013-05-02 22:49:00,57.8,41.7,30.13,East,93,6.0,6.0,55,0.00,,,0.00,Wunderground v.1.15,2013-05-03 02:49:00,
2013-05-02 22:59:00,57.1,42.0,30.13,East,80,5.0,5.0,57,0.00,,,0.00,Wunderground v.1.15,2013-05-03 02:59:00,
2013-05-02 23:09:00,57.0,42.4,30.12,East,79,3.0,3.0,58,0.00,,,0.00,Wunderground v.1.15,2013-05-03 03:09:00,
2013-05-02 23:19:00,56.8,43.1,30.12,ENE,78,4.0,4.0,60,0.00,,,0.00,Wunderground v.1.15,2013-05-03 03:19:00,
2013-05-02 23:29:00,56.3,43.0,30.12,East,92,6.0,6.0,61,0.00,,,0.00,Wunderground v.1.15,2013-05-03 03:29:00,
2013-05-02 23:49:00,55.6,43.2,30.12,East,96,5.0,5.0,63,0.00,,,0.00,Wunderground v.1.15,2013-05-03 03:49:00,
2013-05-02 23:59:00,55.7,43.3,30.12,ENE,75,5.0,5.0,63,0.00,,,0.00,Wunderground v.1.15,2013-05-03 03:59:00,